Regional Weather Roundup
Issued by NWS

Home | Current Version | Previous Version | Graphics & Text | Print | Product List | Glossary Off
Versions: 1 2 3 4 5 6 7 8 9 10 11 12 13 14 15 16 17 18 19 20 21 22 23 24 25 26 27 28 29 30 31 32 33 34 35 36 37 38 39 40 41 42 43 44 45 46 47 48 49 50

746
ASUS43 KDMX 030906
RWRIA

WEATHER ROUNDUP FOR IOWA
NATIONAL WEATHER SERVICE DES MOINES IA
300 AM CST SAT DEC 03 2016

NOTE: "FAIR" INDICATES FEW OR NO CLOUDS BELOW 12,000 FEET WITH NO
SIGNIFICANT WEATHER AND/OR OBSTRUCTIONS TO VISIBILITY.

* - THESE STATIONS ARE NOT NWS STATIONS...THUS NOT UNDER NWS
QUALITY CONTROL.  THEY ALSO DO NOT REPORT WEATHER SUCH
AS PRECIPITATION OR FOG.

IAZ001>003-012>014-020>022-031>034-043>046-031000-
   NORTHWEST IOWA

CITY           SKY/WX    TMP DP  RH WIND       PRES   REMARKS
CARROLL *      CLOUDY    34  32  93 W5        30.34R WCI  30
CHEROKEE *     CLOUDY    32  30  93 SW5       30.33S WCI  27
DENISON *      CLOUDY    32  28  86 CALM      30.33R
LE MARS *      CLOUDY    30  30 100 S6        30.34S WCI  24
ORANGE CITY *  CLOUDY    30  30 100 CALM      30.32R
SHELDON *      CLOUDY    30  27  86 W5        30.31R WCI  25
SIOUX CITY     CLOUDY    27  24  89 CALM      30.35S
SPENCER        CLOUDY    31  27  85 W5        30.32R WCI  26
STORM LAKE *   CLOUDY    32  28  86 S7        30.33R WCI  26
$$

IAZ055>058-069>071-079>083-090>094-031000-
   SOUTHWEST IOWA

CITY           SKY/WX    TMP DP  RH WIND       PRES   REMARKS
ATLANTIC *     CLEAR     28  28 100 CALM      30.35F
AUDUBON *      CLOUDY    36  30  80 CALM      30.36R
CLARINDA *       N/A     23  23 100 CALM      30.38S
COUNCIL BLFS * CLEAR     28  28 100 CALM      30.33F
CRESTON *        N/A     28  27  93 CALM      30.35F
HARLAN  *      PTCLDY    28  28 100 CALM      30.38S
LAMONI         CLOUDY    25  23  92 W3        30.35
RED OAK *      CLEAR     23  21  93 N3        30.35F
SHENANDOAH *   PTCLDY    23  21  93 CALM      30.37S
$$

IAZ047>049-059>061-072>074-084-031000-
   CENTRAL IOWA

CITY           SKY/WX    TMP DP  RH WIND       PRES   REMARKS
AMES           CLOUDY    33  30  88 S6        30.36R WCI  28
ANKENY *       CLOUDY    36  34  93 CALM      30.38R
BOONE *        CLOUDY    32  30  93 S5        30.34R WCI  27
CHARITON *       N/A     28  28 100 CALM      30.35F
KNOXVILLE *    CLOUDY    36  30  80 CALM      30.35S
MARSHALLTOWN   CLOUDY    32  27  81 CALM      30.35S
NEWTON *       CLOUDY    32  30  93 S6        30.36R WCI  26
PELLA *        CLOUDY    34  31  88 CALM      30.39R
$$

IAZ004>006-015-016-023>025-035-036-031000-
   NORTH CENTRAL IOWA

CITY           SKY/WX    TMP DP  RH WIND       PRES   REMARKS
ALGONA *       CLOUDY    32  27  80 CALM      30.32R
CLARION *      CLOUDY    32  32 100 SW7       30.34R WCI  26
MASON CITY     CLOUDY    30  25  81 S5        30.33  WCI  25
FOREST CITY *  CLOUDY    30  27  86 CALM      30.32R
WEBSTER CITY * CLOUDY    32  32 100 S9        30.32R WCI  24
$$

IAZ007>011-017>019-026>030-037>042-050>054-066-031000-
   NORTHEAST IOWA

CITY           SKY/WX    TMP DP  RH WIND       PRES   REMARKS
CLINTON *      CLOUDY    32  25  75 NW9       30.37R WCI  24
DECORAH *      CLOUDY    28  23  80 W3        30.32R
DUBUQUE        CLOUDY    30  23  75 W10       30.34R WCI  21
MONTICELLO *   CLOUDY    32  25  74 CALM      30.35S
OELWEIN *      CLOUDY    30  25  80 NW7       30.35R WCI  23
WATERLOO       CLOUDY    30  25  81 CALM      30.36R
$$

IAZ064-065-067-068-078-031000-
   EAST CENTRAL IOWA

CITY           SKY/WX    TMP DP  RH WIND       PRES   REMARKS
MUSCATINE *    CLOUDY    32  28  86 W3        30.39S
$$

IAZ062-063-075>077-085>089-095>099-031000-
   SOUTHEAST IOWA

CITY           SKY/WX    TMP DP  RH WIND       PRES   REMARKS
FAIRFIELD *    CLOUDY    34  30  86 CALM      30.37S
FORT MADISON * CLOUDY    34  30  86 CALM      30.38F
KEOKUK *       CLOUDY    32  30  93 CALM      30.37S
OSKALOOSA *    CLOUDY    33  30  90 CALM      30.38S
CENTERVILLE *  CLOUDY    32  30  93 CALM      30.37F
OTTUMWA        CLOUDY    34  30  85 CALM      30.36S
WASHINGTON *   CLOUDY    32  28  86 W3        30.40R
$$

ABBREVIATIONS USED IN REMARKS
   TC - TEMPERATURES IN CELSIUS
  WCI - WIND CHILL INDEX
   HX - HEAT INDEX
  VSB - VISIBILITY
$$





USA.gov is the U.S. government's official web portal to all federal, state and local government web resources and services.